Location: Lake Crest
(37.6062°N, 88.9176°W)
Time: 20:08:30
(UTC+00:00)

COSMO-SKYMED 1 - Pass Details

Date: 15 December 2019
Orbit: 621 x 623 km, 97.9° (Epoch: 22 January)

Event Time Altitude Azimuth Distance (km) Brightness Sun altitude
Rises 10:26:22 0° 140° (SE) 2,891 6.6 -30.2°
Reaches altitude 10° 10:28:47 10° 128° (SE) 1,989 5.8 -29.7°
Maximum altitude 10:32:27 28° 70° (ENE) 1,189 4.5 -29.0°
Enters shadow 10:34:38 18° 27° (NNE) 1,527 4.7 -28.6°
